This is the latest recevied weather packets stored in our database for station/object KD5FHA. If no packets are shown the sender has not sent any weather packets the latest 10 day(s).
| Time | Temp. | Humidity | Pressure | Rain* | Wind** | Luminosity | Snow |
|---|---|---|---|---|---|---|---|
| 1778197425 | 20° C | 58% | 1016.1 hPa | 0 mm | - | 67 W/m² | - |
| 1778197122 | 20° C | 58% | 1015.8 hPa | 0 mm | - | 78 W/m² | - |
| 1778196819 | 20° C | 56% | 1016 hPa | 0 mm | - | 94 W/m² | - |
| 1778196517 | 20° C | 57% | 1016 hPa | 0 mm | - | 112 W/m² | - |
| 1778196213 | 20.56° C | 57% | 1015.8 hPa | 0 mm | - | 99 W/m² | - |
| 1778195911 | 20° C | 58% | 1016 hPa | 0 mm | - | 90 W/m² | - |
| 1778195608 | 20° C | 57% | 1016 hPa | 0 mm | - | 111 W/m² | - |
| 1778195304 | 20.56° C | 58% | 1016.4 hPa | 0 mm | - | 96 W/m² | - |
| 1778195001 | 20.56° C | 57% | 1016.3 hPa | 0 mm | - | 95 W/m² | - |
| 1778194701 | 20.56° C | 57% | 1016.2 hPa | 0 mm | - | 119 W/m² | - |
| 1778194397 | 20.56° C | 58% | 1016.1 hPa | 0 mm | - | 138 W/m² | - |
| 1778194094 | 20.56° C | 56% | 1016.1 hPa | 0 mm | - | 130 W/m² | - |
| 1778193790 | 20.56° C | 57% | 1016.2 hPa | 0 mm | - | 115 W/m² | - |
| 1778193486 | 20.56° C | 57% | 1016.3 hPa | 0 mm | - | 126 W/m² | - |
| 1778193183 | 20.56° C | 57% | 1016.3 hPa | 0 mm | - | 128 W/m² | - |
| 1778192880 | 20.56° C | 57% | 1016.4 hPa | 0 mm | - | 121 W/m² | - |
| 1778192576 | 20.56° C | 58% | 1016.4 hPa | 0 mm | - | 130 W/m² | - |
| 1778192273 | 20.56° C | 57% | 1016.6 hPa | 0 mm | - | 139 W/m² | - |
| 1778191969 | 20.56° C | 57% | 1016.3 hPa | 0 mm | - | 146 W/m² | - |
| 1778191666 | 21.11° C | 56% | 1016.5 hPa | 0 mm | - | 153 W/m² | - |
| 1778191365 | 21.11° C | 55% | 1016.3 hPa | 0 mm | - | 163 W/m² | - |
| 1778191060 | 20.56° C | 55% | 1016.3 hPa | 0 mm | - | 164 W/m² | - |
| 1778190758 | 21.11° C | 55% | 1016.3 hPa | 0 mm | - | 169 W/m² | - |
| 1778190455 | 21.11° C | 54% | 1016.4 hPa | 0 mm | - | 184 W/m² | - |
| 1778190152 | 21.11° C | 55% | 1016.6 hPa | 0 mm | - | 201 W/m² | - |
* Rain latest hour (hover to see other rain measurements)
** Current wind speed in m/s (hover to see current wind gust speed)